Torna al catalogo

DELTA 1 DEB

AttivoPO
NORAD 8981·DEBRIS·🇺🇸 United States

Lanciato Jan 22, 1975 da Vandenberg Space Force Base

Loading…

Prossimi Passaggi (prossime 24 ore)

TLE

AggiornatoSource: Space-Track

Epoca: Sep 14, 2026, 09:34 UTC

1 08981U 75004BP  26257.39892643  .00001895  00000-0  47086-3 0  9999
2 08981  97.6712  51.0204 0110089 224.0880 135.1500 14.49239456628665

Traccia DELTA 1 DEB in tempo reale con AllMySat

Download on the App Store